This is the latest recevied weather packets stored in our database for station/object CT2HRB-13. If no packets are shown the sender has not sent any weather packets the latest 10 day(s).
| Time | Temp. | Humidity | Pressure | Rain* | Wind** | Luminosity | Snow |
|---|---|---|---|---|---|---|---|
| 1777561802 | 20° C | 54% | 1016.7 hPa | - | - | - | - |
| 1777561502 | 20° C | 54% | 1016.6 hPa | - | - | - | - |
| 1777561202 | 20° C | 53% | 1016.9 hPa | - | - | - | - |
| 1777560902 | 20.56° C | 52% | 1017 hPa | - | - | - | - |
| 1777560602 | 20.56° C | 50% | 1016.8 hPa | - | - | - | - |
| 1777560302 | 20.56° C | 50% | 1016.8 hPa | - | - | - | - |
| 1777560002 | 21.11° C | 49% | 1016.9 hPa | - | - | - | - |
| 1777559702 | 21.67° C | 47% | 1016.8 hPa | - | - | - | - |
| 1777559402 | 21.67° C | 46% | 1016.9 hPa | - | - | - | - |
| 1777559102 | 22.22° C | 45% | 1016.9 hPa | - | - | - | - |
| 1777558802 | 22.22° C | 45% | 1016.8 hPa | - | - | - | - |
| 1777558502 | 21.67° C | 46% | 1016.9 hPa | - | - | - | - |
| 1777558202 | 21.67° C | 46% | 1016.9 hPa | - | - | - | - |
| 1777557901 | 21.11° C | 47% | 1016.7 hPa | - | - | - | - |
| 1777557602 | 22.22° C | 44% | 1016.9 hPa | - | - | - | - |
| 1777557301 | 22.78° C | 44% | 1016.9 hPa | - | - | - | - |
| 1777557002 | 22.78° C | 44% | 1016.9 hPa | - | - | - | - |
| 1777556702 | 23.33° C | 43% | 1016.8 hPa | - | - | - | - |
| 1777556401 | 23.33° C | 43% | 1016.8 hPa | - | - | - | - |
| 1777556102 | 23.33° C | 43% | 1016.9 hPa | - | - | - | - |
| 1777555801 | 23.33° C | 44% | 1016.7 hPa | - | - | - | - |
| 1777555502 | 23.89° C | 44% | 1016.8 hPa | - | - | - | - |
| 1777555201 | 23.33° C | 43% | 1016.9 hPa | - | - | - | - |
| 1777554902 | 23.33° C | 48% | 1016.9 hPa | - | - | - | - |
| 1777554602 | 22.78° C | 46% | 1016.9 hPa | - | - | - | - |
* Rain since midnight (hover to see other rain measurements)
** Current wind speed in m/s (hover to see current wind gust speed)